TimeCDT,TemperatureF,Dew PointF,Humidity,Sea Level PressureIn,VisibilityMPH,Wind Direction,Wind SpeedMPH,Gust SpeedMPH,PrecipitationIn,Events,Conditions,WindDirDegrees,DateUTC
12:13 AM,35.6,30.2,81,30.26,10.0,South,4.6,-,N/A,,Clear,170,2013-03-29 05:13:00
12:33 AM,35.6,30.2,81,30.25,10.0,SSE,5.8,-,N/A,,Clear,160,2013-03-29 05:33:00
12:52 AM,33.8,30.2,87,30.25,10.0,SE,4.6,-,N/A,,Clear,140,2013-03-29 05:52:00
1:13 AM,33.8,30.2,87,30.25,10.0,SSE,5.8,-,N/A,,Clear,160,2013-03-29 06:13:00
1:33 AM,33.8,30.2,87,30.26,10.0,SSE,4.6,-,N/A,,Clear,150,2013-03-29 06:33:00
1:52 AM,33.8,30.2,87,30.26,10.0,Calm,Calm,-,N/A,,Scattered Clouds,0,2013-03-29 06:52:00
2:13 AM,33.8,28.4,81,30.26,10.0,Calm,Calm,-,N/A,,Scattered Clouds,0,2013-03-29 07:13:00
2:33 AM,33.8,28.4,81,30.26,10.0,SSE,3.5,-,N/A,,Scattered Clouds,150,2013-03-29 07:33:00
2:52 AM,33.8,28.4,81,30.26,10.0,South,3.5,-,N/A,,Clear,170,2013-03-29 07:52:00
3:13 AM,32.0,28.4,87,30.25,10.0,SSE,3.5,-,N/A,,Scattered Clouds,160,2013-03-29 08:13:00
3:33 AM,33.8,28.4,81,30.25,10.0,SSE,3.5,-,N/A,,Scattered Clouds,150,2013-03-29 08:33:00
3:52 AM,33.8,30.2,87,30.25,10.0,SE,4.6,-,N/A,,Mostly Cloudy,140,2013-03-29 08:52:00
4:13 AM,33.8,30.2,87,30.25,10.0,SSE,3.5,-,N/A,,Scattered Clouds,160,2013-03-29 09:13:00
4:33 AM,33.8,28.4,81,30.24,10.0,SSE,3.5,-,N/A,,Scattered Clouds,160,2013-03-29 09:33:00
4:52 AM,33.8,30.2,87,30.24,10.0,SE,3.5,-,N/A,,Mostly Cloudy,140,2013-03-29 09:52:00
5:13 AM,33.8,30.2,87,30.24,10.0,SE,4.6,-,N/A,,Mostly Cloudy,130,2013-03-29 10:13:00
5:33 AM,33.8,30.2,87,30.24,10.0,SSE,4.6,-,N/A,,Mostly Cloudy,150,2013-03-29 10:33:00
5:52 AM,33.8,30.2,87,30.24,10.0,SSE,5.8,-,N/A,,Scattered Clouds,150,2013-03-29 10:52:00
6:13 AM,33.8,28.4,81,30.24,10.0,SSE,4.6,-,N/A,,Clear,160,2013-03-29 11:13:00
6:33 AM,33.8,28.4,81,30.24,10.0,SE,3.5,-,N/A,,Clear,140,2013-03-29 11:33:00
6:52 AM,32.0,28.4,87,30.25,10.0,SSE,3.5,-,N/A,,Mostly Cloudy,160,2013-03-29 11:52:00
7:13 AM,33.8,28.4,81,30.25,10.0,SE,3.5,-,N/A,,Overcast,140,2013-03-29 12:13:00
7:32 AM,33.8,28.4,81,30.25,10.0,SE,3.5,-,N/A,,Overcast,140,2013-03-29 12:32:00
7:53 AM,33.8,28.4,81,30.26,10.0,SSE,3.5,-,N/A,,Overcast,160,2013-03-29 12:53:00
8:13 AM,33.8,28.4,81,30.26,10.0,SSE,3.5,-,N/A,,Overcast,160,2013-03-29 13:13:00
8:33 AM,35.6,30.2,81,30.26,10.0,SSE,4.6,-,N/A,,Overcast,150,2013-03-29 13:33:00
8:53 AM,35.6,30.2,81,30.26,10.0,SSE,6.9,-,N/A,,Mostly Cloudy,160,2013-03-29 13:53:00
9:12 AM,37.4,30.2,75,30.26,10.0,SSE,8.1,-,N/A,,Scattered Clouds,160,2013-03-29 14:12:00
9:33 AM,37.4,30.2,75,30.25,10.0,SSE,10.4,-,N/A,,Scattered Clouds,160,2013-03-29 14:33:00
9:52 AM,39.2,30.2,70,30.25,10.0,SSE,9.2,-,N/A,,Clear,160,2013-03-29 14:52:00
10:12 AM,39.2,30.2,70,30.26,10.0,SSE,10.4,-,N/A,,Clear,160,2013-03-29 15:12:00
10:33 AM,39.2,33.8,81,30.25,10.0,SSE,9.2,-,N/A,,Clear,150,2013-03-29 15:33:00
10:52 AM,41.0,33.8,76,30.25,10.0,SSE,10.4,-,N/A,,Clear,160,2013-03-29 15:52:00
11:12 AM,42.8,33.8,70,30.25,10.0,SSE,10.4,-,N/A,,Clear,150,2013-03-29 16:12:00
11:52 AM,42.8,35.6,76,30.25,10.0,SSE,10.4,-,N/A,,Mostly Cloudy,160,2013-03-29 16:52:00
12:12 PM,44.6,35.6,71,30.23,10.0,SSE,13.8,-,N/A,,Scattered Clouds,150,2013-03-29 17:12:00
12:33 PM,44.6,35.6,71,30.23,10.0,SSE,12.7,-,N/A,,Scattered Clouds,160,2013-03-29 17:33:00
12:52 PM,46.4,35.6,66,30.23,10.0,SSE,15.0,-,N/A,,Clear,160,2013-03-29 17:52:00
1:12 PM,46.4,37.4,71,30.23,10.0,SSE,12.7,-,N/A,,Scattered Clouds,160,2013-03-29 18:12:00
1:33 PM,46.4,37.4,71,30.22,10.0,SSE,15.0,-,N/A,,Scattered Clouds,150,2013-03-29 18:33:00
1:52 PM,46.4,37.4,71,30.21,10.0,SSE,11.5,-,N/A,,Scattered Clouds,160,2013-03-29 18:52:00
2:12 PM,46.4,37.4,71,30.21,10.0,SSE,15.0,-,N/A,,Scattered Clouds,160,2013-03-29 19:12:00
2:33 PM,48.2,37.4,66,30.20,10.0,SSE,13.8,17.3,N/A,,Clear,150,2013-03-29 19:33:00
2:52 PM,48.2,39.2,71,30.20,10.0,South,11.5,16.1,N/A,,Scattered Clouds,170,2013-03-29 19:52:00
3:13 PM,50.0,37.4,62,30.19,10.0,South,13.8,19.6,N/A,,Scattered Clouds,180,2013-03-29 20:13:00
3:32 PM,50.0,39.2,66,30.18,10.0,South,12.7,-,N/A,,Scattered Clouds,170,2013-03-29 20:32:00
3:52 PM,51.8,39.2,62,30.18,10.0,SSE,11.5,18.4,N/A,,Scattered Clouds,160,2013-03-29 20:52:00
4:13 PM,51.8,39.2,62,30.17,10.0,South,9.2,16.1,N/A,,Scattered Clouds,180,2013-03-29 21:13:00
4:32 PM,51.8,39.2,62,30.16,10.0,South,9.2,17.3,N/A,,Clear,190,2013-03-29 21:32:00
4:53 PM,51.8,39.2,62,30.16,10.0,SSE,13.8,-,N/A,,Clear,160,2013-03-29 21:53:00
5:12 PM,51.8,39.2,62,30.15,10.0,SSE,12.7,-,N/A,,Clear,160,2013-03-29 22:12:00
5:33 PM,51.8,41.0,67,30.15,10.0,South,10.4,-,N/A,,Clear,170,2013-03-29 22:33:00
5:52 PM,51.8,41.0,67,30.15,10.0,SSE,9.2,-,N/A,,Clear,160,2013-03-29 22:52:00
6:13 PM,51.8,41.0,67,30.14,10.0,SSE,9.2,16.1,N/A,,Clear,160,2013-03-29 23:13:00
6:32 PM,48.2,41.0,76,30.14,10.0,SSE,9.2,-,N/A,,Clear,160,2013-03-29 23:32:00
6:52 PM,48.2,41.0,76,30.14,10.0,SSE,8.1,-,N/A,,Clear,160,2013-03-29 23:52:00
7:13 PM,48.2,41.0,76,30.13,10.0,SSE,6.9,-,N/A,,Clear,160,2013-03-30 00:13:00
7:32 PM,46.4,39.2,76,30.13,10.0,SSE,8.1,-,N/A,,Clear,160,2013-03-30 00:32:00
7:52 PM,46.4,39.2,76,30.12,10.0,SSE,8.1,-,N/A,,Clear,160,2013-03-30 00:52:00
8:13 PM,44.6,39.2,81,30.12,10.0,SSE,9.2,-,N/A,,Clear,150,2013-03-30 01:13:00
8:32 PM,44.6,39.2,81,30.12,10.0,SSE,8.1,-,N/A,,Clear,160,2013-03-30 01:32:00
8:52 PM,44.6,39.2,81,30.11,10.0,SSE,9.2,-,N/A,,Clear,160,2013-03-30 01:52:00
9:13 PM,44.6,39.2,81,30.11,10.0,SSE,8.1,-,N/A,,Clear,160,2013-03-30 02:13:00
9:33 PM,44.6,39.2,81,30.11,10.0,SSE,9.2,-,N/A,,Clear,150,2013-03-30 02:33:00
9:52 PM,44.6,39.2,81,30.11,10.0,SSE,10.4,-,N/A,,Clear,160,2013-03-30 02:52:00
10:12 PM,44.6,37.4,76,30.10,10.0,SSE,10.4,-,N/A,,Clear,160,2013-03-30 03:12:00
10:33 PM,44.6,37.4,76,30.10,10.0,SSE,11.5,-,N/A,,Scattered Clouds,150,2013-03-30 03:33:00
10:52 PM,44.6,37.4,76,30.09,10.0,SSE,11.5,-,N/A,,Scattered Clouds,160,2013-03-30 03:52:00
11:12 PM,42.8,37.4,81,30.09,10.0,SSE,12.7,-,N/A,,Mostly Cloudy,160,2013-03-30 04:12:00
11:33 PM,42.8,37.4,81,30.08,10.0,SSE,12.7,-,N/A,,Overcast,160,2013-03-30 04:33:00
11:52 PM,42.8,37.4,81,30.08,7.0,SSE,11.5,-,N/A,,Overcast,160,2013-03-30 04:52:00